Year,Month,Day,Hour,Minute,Value (Times are PST for temperature in C)
2008,06,19,00,00,10.50
2008,06,19,00,01,10.50
2008,06,19,00,02,10.50
2008,06,19,00,03,10.40
2008,06,19,00,04,10.40
2008,06,19,00,05,10.40
2008,06,19,00,06,10.40
2008,06,19,00,07,10.40
2008,06,19,00,08,10.30
2008,06,19,00,09,10.30
2008,06,19,00,10,10.30
2008,06,19,00,11,10.30
2008,06,19,00,12,10.30
2008,06,19,00,13,10.30
2008,06,19,00,14,10.30
2008,06,19,00,15,10.20
2008,06,19,00,16,10.20
2008,06,19,00,17,10.20
2008,06,19,00,18,10.20
2008,06,19,00,19,10.20
2008,06,19,00,20,10.20
2008,06,19,00,21,10.10
2008,06,19,00,22,10.10
2008,06,19,00,23,10.10
2008,06,19,00,24,10.10
2008,06,19,00,25,10.10
2008,06,19,00,26,10.10
2008,06,19,00,27,10.10
2008,06,19,00,28,10.10
2008,06,19,00,29,10.10
2008,06,19,00,30,10.10
2008,06,19,00,31,10.10
2008,06,19,00,32,10.10
2008,06,19,00,33,10.10
2008,06,19,00,34,10.10
2008,06,19,00,35,10.10
2008,06,19,00,36,10.10
2008,06,19,00,37,10.10
2008,06,19,00,38,10.10
2008,06,19,00,39,10.00
2008,06,19,00,40,10.00
2008,06,19,00,41,10.00
2008,06,19,00,42,10.00
2008,06,19,00,43,10.00
2008,06,19,00,44,10.00
2008,06,19,00,45,10.00
2008,06,19,00,46,10.00
2008,06,19,00,47,9.90
2008,06,19,00,48,9.90
2008,06,19,00,49,9.90
2008,06,19,00,50,9.90
2008,06,19,00,51,9.90
2008,06,19,00,52,9.80
2008,06,19,00,53,9.80
2008,06,19,00,54,9.80
2008,06,19,00,55,9.80
2008,06,19,00,56,9.80
2008,06,19,00,57,9.70
2008,06,19,00,58,9.70
2008,06,19,00,59,9.60
2008,06,19,01,00,9.60
2008,06,19,01,01,9.60
2008,06,19,01,02,9.50
2008,06,19,01,03,9.40
2008,06,19,01,04,9.40
2008,06,19,01,05,9.30
2008,06,19,01,06,9.30
2008,06,19,01,07,9.20
2008,06,19,01,08,9.20
2008,06,19,01,09,9.20
2008,06,19,01,10,9.10
2008,06,19,01,11,9.10
2008,06,19,01,12,9.10
2008,06,19,01,13,9.10
2008,06,19,01,14,9.10
2008,06,19,01,15,9.10
2008,06,19,01,16,9.10
2008,06,19,01,17,9.10
2008,06,19,01,18,9.10
2008,06,19,01,19,9.10
2008,06,19,01,20,9.10
2008,06,19,01,21,9.10
2008,06,19,01,22,9.10
2008,06,19,01,23,9.10
2008,06,19,01,24,9.10
2008,06,19,01,25,9.10
2008,06,19,01,26,9.10
2008,06,19,01,27,9.10
2008,06,19,01,28,9.10
2008,06,19,01,29,9.00
2008,06,19,01,30,9.00
2008,06,19,01,31,9.00
2008,06,19,01,32,8.90
2008,06,19,01,33,8.90
2008,06,19,01,34,8.80
2008,06,19,01,35,8.80
2008,06,19,01,36,8.80
2008,06,19,01,37,8.80
2008,06,19,01,38,8.80
2008,06,19,01,39,8.70
2008,06,19,01,40,8.70
2008,06,19,01,41,8.70
2008,06,19,01,42,8.70
2008,06,19,01,43,8.70
2008,06,19,01,44,8.70
2008,06,19,01,45,8.70
2008,06,19,01,46,8.70
2008,06,19,01,47,8.70
2008,06,19,01,48,8.70
2008,06,19,01,49,8.70
2008,06,19,01,50,8.70
2008,06,19,01,51,8.70
2008,06,19,01,52,8.70
2008,06,19,01,53,8.70
2008,06,19,01,54,8.70
2008,06,19,01,55,8.70
2008,06,19,01,56,8.70
2008,06,19,01,57,8.70
2008,06,19,01,58,8.70
2008,06,19,01,59,8.70
2008,06,19,02,00,8.60
2008,06,19,02,01,8.60
2008,06,19,02,02,8.60
2008,06,19,02,03,8.60
2008,06,19,02,04,8.60
2008,06,19,02,05,8.60
2008,06,19,02,06,8.60
2008,06,19,02,07,8.60
2008,06,19,02,08,8.70
2008,06,19,02,09,8.70
2008,06,19,02,10,8.70
2008,06,19,02,11,8.70
2008,06,19,02,12,8.70
2008,06,19,02,13,8.70
2008,06,19,02,14,8.70
2008,06,19,02,15,8.70
2008,06,19,02,16,8.70
2008,06,19,02,17,8.80
2008,06,19,02,18,8.80
2008,06,19,02,19,8.80
2008,06,19,02,20,8.80
2008,06,19,02,21,8.70
2008,06,19,02,22,8.70
2008,06,19,02,23,8.70
2008,06,19,02,24,8.70
2008,06,19,02,25,8.70
2008,06,19,02,26,8.70
2008,06,19,02,27,8.70
2008,06,19,02,28,8.60
2008,06,19,02,29,8.60
2008,06,19,02,30,8.60
2008,06,19,02,31,8.60
2008,06,19,02,32,8.60
2008,06,19,02,33,8.60
2008,06,19,02,34,8.60
2008,06,19,02,35,8.60
2008,06,19,02,36,8.60
2008,06,19,02,37,8.60
2008,06,19,02,38,8.60
2008,06,19,02,39,8.60
2008,06,19,02,40,8.60
2008,06,19,02,41,8.60
2008,06,19,02,42,8.60
2008,06,19,02,43,8.60
2008,06,19,02,44,8.60
2008,06,19,02,45,8.60
2008,06,19,02,46,8.60
2008,06,19,02,47,8.70
2008,06,19,02,48,8.70
2008,06,19,02,49,8.70
2008,06,19,02,50,8.70
2008,06,19,02,51,8.70
2008,06,19,02,52,8.70
2008,06,19,02,53,8.70
2008,06,19,02,54,8.70
2008,06,19,02,55,8.70
2008,06,19,02,56,8.70
2008,06,19,02,57,8.70
2008,06,19,02,58,8.70
2008,06,19,02,59,8.70
2008,06,19,03,00,8.70
2008,06,19,03,01,8.70
2008,06,19,03,02,8.70
2008,06,19,03,03,8.70
2008,06,19,03,04,8.70
2008,06,19,03,05,8.70
2008,06,19,03,06,8.80
2008,06,19,03,07,8.80
2008,06,19,03,08,8.80
2008,06,19,03,09,8.80
2008,06,19,03,10,8.90
2008,06,19,03,11,8.90
2008,06,19,03,12,8.90
2008,06,19,03,13,8.90
2008,06,19,03,14,8.90
2008,06,19,03,15,8.90
2008,06,19,03,16,8.90
2008,06,19,03,17,8.90
2008,06,19,03,18,9.00
2008,06,19,03,19,9.00
2008,06,19,03,20,9.00
2008,06,19,03,21,9.00
2008,06,19,03,22,9.00
2008,06,19,03,23,9.00
2008,06,19,03,24,9.00
2008,06,19,03,25,9.00
2008,06,19,03,26,9.00
2008,06,19,03,27,9.00
2008,06,19,03,28,9.00
2008,06,19,03,29,9.00
2008,06,19,03,30,9.00
2008,06,19,03,31,9.00
2008,06,19,03,32,8.90
2008,06,19,03,33,8.90
2008,06,19,03,34,8.90
2008,06,19,03,35,9.00
2008,06,19,03,36,9.00
2008,06,19,03,37,9.00
2008,06,19,03,38,9.00
2008,06,19,03,39,9.00
2008,06,19,03,40,9.00
2008,06,19,03,41,9.00
2008,06,19,03,42,9.10
2008,06,19,03,43,9.10
2008,06,19,03,44,9.10
2008,06,19,03,45,9.10
2008,06,19,03,46,9.10
2008,06,19,03,47,9.10
2008,06,19,03,48,9.20
2008,06,19,03,49,9.20
2008,06,19,03,50,9.20
2008,06,19,03,51,9.20
2008,06,19,03,52,9.20
2008,06,19,03,53,9.20
2008,06,19,03,54,9.20
2008,06,19,03,55,9.20
2008,06,19,03,56,9.20
2008,06,19,03,57,9.20
2008,06,19,03,58,9.20
2008,06,19,03,59,9.20
2008,06,19,04,00,9.30
2008,06,19,04,01,9.30
2008,06,19,04,02,9.30
2008,06,19,04,03,9.30
2008,06,19,04,04,9.30
2008,06,19,04,05,9.30
2008,06,19,04,06,9.30
2008,06,19,04,07,9.30
2008,06,19,04,08,9.30
2008,06,19,04,09,9.30
2008,06,19,04,10,9.30
2008,06,19,04,11,9.30
2008,06,19,04,12,9.30
2008,06,19,04,13,9.30
2008,06,19,04,14,9.30
2008,06,19,04,15,9.30
2008,06,19,04,16,9.30
2008,06,19,04,17,9.30
2008,06,19,04,18,9.20
2008,06,19,04,19,9.20
2008,06,19,04,20,9.20
2008,06,19,04,21,9.20
2008,06,19,04,22,9.20
2008,06,19,04,23,9.20
2008,06,19,04,24,9.30
2008,06,19,04,25,9.30
2008,06,19,04,26,9.30
2008,06,19,04,27,9.30
2008,06,19,04,28,9.30
2008,06,19,04,29,9.30
2008,06,19,04,30,9.30
2008,06,19,04,31,9.30
2008,06,19,04,32,9.30
2008,06,19,04,33,9.30
2008,06,19,04,34,9.40
2008,06,19,04,35,9.40
2008,06,19,04,36,9.40
2008,06,19,04,37,9.40
2008,06,19,04,38,9.40
2008,06,19,04,39,9.40
2008,06,19,04,40,9.50
2008,06,19,04,41,9.50
2008,06,19,04,42,9.50
2008,06,19,04,43,9.60
2008,06,19,04,44,9.60
2008,06,19,04,45,9.60
2008,06,19,04,46,9.60
2008,06,19,04,47,9.60
2008,06,19,04,48,9.60
2008,06,19,04,49,9.60
2008,06,19,04,50,9.60
2008,06,19,04,51,9.60
2008,06,19,04,52,9.60
2008,06,19,04,53,9.60
2008,06,19,04,54,9.60
2008,06,19,04,55,9.60
2008,06,19,04,56,9.60
2008,06,19,04,57,9.60
2008,06,19,04,58,9.60
2008,06,19,04,59,9.60
2008,06,19,05,00,9.60
2008,06,19,05,01,9.60
2008,06,19,05,02,9.60
2008,06,19,05,03,9.60
2008,06,19,05,04,9.60
2008,06,19,05,05,9.60
2008,06,19,05,06,9.60
2008,06,19,05,07,9.60
2008,06,19,05,08,9.60
2008,06,19,05,09,9.60
2008,06,19,05,10,9.60
2008,06,19,05,11,9.60
2008,06,19,05,12,9.60
2008,06,19,05,13,9.60
2008,06,19,05,14,9.60
2008,06,19,05,15,9.60
2008,06,19,05,16,9.60
2008,06,19,05,17,9.60
2008,06,19,05,18,9.60
2008,06,19,05,19,9.60
2008,06,19,05,20,9.60
2008,06,19,05,21,9.60
2008,06,19,05,22,9.60
2008,06,19,05,23,9.60
2008,06,19,05,24,9.70
2008,06,19,05,25,9.70
2008,06,19,05,26,9.70
2008,06,19,05,27,9.70
2008,06,19,05,28,9.70
2008,06,19,05,29,9.70
2008,06,19,05,30,9.70
2008,06,19,05,31,9.70
2008,06,19,05,32,9.80
2008,06,19,05,33,9.80
2008,06,19,05,34,9.80
2008,06,19,05,35,9.80
2008,06,19,05,36,9.80
2008,06,19,05,37,9.80
2008,06,19,05,38,9.80
2008,06,19,05,39,9.80
2008,06,19,05,40,9.80
2008,06,19,05,41,9.80
2008,06,19,05,42,9.80
2008,06,19,05,43,9.80
2008,06,19,05,44,9.80
2008,06,19,05,45,9.80
2008,06,19,05,46,9.80
2008,06,19,05,47,9.80
2008,06,19,05,48,9.80
2008,06,19,05,49,9.80
2008,06,19,05,50,9.80
2008,06,19,05,51,9.80
2008,06,19,05,52,9.80
2008,06,19,05,53,9.80
2008,06,19,05,54,9.80
2008,06,19,05,55,9.80
2008,06,19,05,56,9.80
2008,06,19,05,57,9.80
2008,06,19,05,58,9.80
2008,06,19,05,59,9.80
2008,06,19,06,00,9.80
2008,06,19,06,01,9.80
2008,06,19,06,02,9.80
2008,06,19,06,03,9.80
2008,06,19,06,04,9.80
2008,06,19,06,05,9.80
2008,06,19,06,06,9.80
2008,06,19,06,07,9.80
2008,06,19,06,08,9.80
2008,06,19,06,09,9.80
2008,06,19,06,10,9.80
2008,06,19,06,11,9.80
2008,06,19,06,12,9.80
2008,06,19,06,13,9.90
2008,06,19,06,14,9.90
2008,06,19,06,15,9.90
2008,06,19,06,16,9.90
2008,06,19,06,17,9.90
2008,06,19,06,18,9.90
2008,06,19,06,19,9.90
2008,06,19,06,20,9.90
2008,06,19,06,21,9.90
2008,06,19,06,22,9.90
2008,06,19,06,23,9.90
2008,06,19,06,24,9.90
2008,06,19,06,25,9.90
2008,06,19,06,26,9.90
2008,06,19,06,27,9.90
2008,06,19,06,28,10.00
2008,06,19,06,29,10.00
2008,06,19,06,30,10.00
2008,06,19,06,31,10.00
2008,06,19,06,32,10.00
2008,06,19,06,33,10.00
2008,06,19,06,34,10.00
2008,06,19,06,35,10.00
2008,06,19,06,36,10.10
2008,06,19,06,37,10.10
2008,06,19,06,38,10.10
2008,06,19,06,39,10.10
2008,06,19,06,40,10.10
2008,06,19,06,41,10.10
2008,06,19,06,42,10.10
2008,06,19,06,43,10.10
2008,06,19,06,44,10.10
2008,06,19,06,45,10.10
2008,06,19,06,46,10.10
2008,06,19,06,47,10.20
2008,06,19,06,48,10.20
2008,06,19,06,49,10.20
2008,06,19,06,50,10.20
2008,06,19,06,51,10.20
2008,06,19,06,52,10.20
2008,06,19,06,53,10.20
2008,06,19,06,54,10.20
2008,06,19,06,55,10.20
2008,06,19,06,56,10.20
2008,06,19,06,57,10.20
2008,06,19,06,58,10.20
2008,06,19,06,59,10.10
2008,06,19,07,00,10.10
2008,06,19,07,01,10.10
2008,06,19,07,02,10.10
2008,06,19,07,03,10.10
2008,06,19,07,04,10.10
2008,06,19,07,05,10.10
2008,06,19,07,06,10.10
2008,06,19,07,07,10.10
2008,06,19,07,08,10.10
2008,06,19,07,09,10.10
2008,06,19,07,10,10.10
2008,06,19,07,11,10.10
2008,06,19,07,12,10.20
2008,06,19,07,13,10.20
2008,06,19,07,14,10.20
2008,06,19,07,15,10.20
2008,06,19,07,16,10.20
2008,06,19,07,17,10.30
2008,06,19,07,18,10.30
2008,06,19,07,19,10.30
2008,06,19,07,20,10.30
2008,06,19,07,21,10.30
2008,06,19,07,22,10.30
2008,06,19,07,23,10.30
2008,06,19,07,24,10.30
2008,06,19,07,25,10.30
2008,06,19,07,26,10.20
2008,06,19,07,27,10.30
2008,06,19,07,28,10.20
2008,06,19,07,29,10.30
2008,06,19,07,30,10.20
2008,06,19,07,31,10.20
2008,06,19,07,32,10.20
2008,06,19,07,33,10.20
2008,06,19,07,34,10.30
2008,06,19,07,35,10.30
2008,06,19,07,36,10.30
2008,06,19,07,37,10.30
2008,06,19,07,38,10.30
2008,06,19,07,39,10.30
2008,06,19,07,40,10.30
2008,06,19,07,41,10.30
2008,06,19,07,42,10.30
2008,06,19,07,43,10.30
2008,06,19,07,44,10.30
2008,06,19,07,45,10.30
2008,06,19,07,46,10.40
2008,06,19,07,47,10.40
2008,06,19,07,48,10.40
2008,06,19,07,49,10.40
2008,06,19,07,50,10.40
2008,06,19,07,51,10.40
2008,06,19,07,52,10.40
2008,06,19,07,53,10.50
2008,06,19,07,54,10.50
2008,06,19,07,55,10.50
2008,06,19,07,56,10.50
2008,06,19,07,57,10.50
2008,06,19,07,58,10.60
2008,06,19,07,59,10.60
2008,06,19,08,00,10.60
2008,06,19,08,01,10.50
2008,06,19,08,02,10.50
2008,06,19,08,03,10.50
2008,06,19,08,04,10.50
2008,06,19,08,05,10.50
2008,06,19,08,06,10.60
2008,06,19,08,07,10.60
2008,06,19,08,08,10.60
2008,06,19,08,09,10.60
2008,06,19,08,10,10.60
2008,06,19,08,11,10.60
2008,06,19,08,12,10.60
2008,06,19,08,13,10.60
2008,06,19,08,14,10.60
2008,06,19,08,15,10.60
2008,06,19,08,16,10.60
2008,06,19,08,17,10.60
2008,06,19,08,18,10.60
2008,06,19,08,19,10.50
2008,06,19,08,20,10.50
2008,06,19,08,21,10.50
2008,06,19,08,22,10.60
2008,06,19,08,23,10.70
2008,06,19,08,24,10.70
2008,06,19,08,25,10.70
2008,06,19,08,26,10.80
2008,06,19,08,27,10.80
2008,06,19,08,28,10.80
2008,06,19,08,29,10.90
2008,06,19,08,30,10.90
2008,06,19,08,31,10.90
2008,06,19,08,32,10.90
2008,06,19,08,33,11.00
2008,06,19,08,34,11.00
2008,06,19,08,35,11.00
2008,06,19,08,36,11.00
2008,06,19,08,37,11.00
2008,06,19,08,38,11.00
2008,06,19,08,39,11.00
2008,06,19,08,40,11.00
2008,06,19,08,41,11.00
2008,06,19,08,42,11.00
2008,06,19,08,43,11.00
2008,06,19,08,44,11.00
2008,06,19,08,45,11.00
2008,06,19,08,46,11.00
2008,06,19,08,47,11.00
2008,06,19,08,48,11.10
2008,06,19,08,49,11.10
2008,06,19,08,50,11.20
2008,06,19,08,51,11.20
2008,06,19,08,52,11.30
2008,06,19,08,53,11.30
2008,06,19,08,54,11.30
2008,06,19,08,55,11.30
2008,06,19,08,56,11.30
2008,06,19,08,57,11.30
2008,06,19,08,58,11.30
2008,06,19,08,59,11.30
2008,06,19,09,00,11.30
2008,06,19,09,01,11.30
2008,06,19,09,02,11.30
2008,06,19,09,03,11.30
2008,06,19,09,04,11.30
2008,06,19,09,05,11.30
2008,06,19,09,06,11.30
2008,06,19,09,07,11.40
2008,06,19,09,08,11.40
2008,06,19,09,09,11.40
2008,06,19,09,10,11.40
2008,06,19,09,11,11.50
2008,06,19,09,12,11.50
2008,06,19,09,13,11.60
2008,06,19,09,14,11.60
2008,06,19,09,15,11.60
2008,06,19,09,16,11.70
2008,06,19,09,17,11.70
2008,06,19,09,18,11.70
2008,06,19,09,19,11.70
2008,06,19,09,20,11.80
2008,06,19,09,21,11.80
2008,06,19,09,22,11.80
2008,06,19,09,23,11.80
2008,06,19,09,24,11.80
2008,06,19,09,25,11.90
2008,06,19,09,26,11.90
2008,06,19,09,27,11.90
2008,06,19,09,28,12.00
2008,06,19,09,29,12.00
2008,06,19,09,30,12.00
2008,06,19,09,31,12.00
2008,06,19,09,32,12.00
2008,06,19,09,33,12.00
2008,06,19,09,34,12.00
2008,06,19,09,35,11.90
2008,06,19,09,36,11.90
2008,06,19,09,37,11.90
2008,06,19,09,38,12.00
2008,06,19,09,39,12.10
2008,06,19,09,40,12.00
2008,06,19,09,41,11.90
2008,06,19,09,42,11.90
2008,06,19,09,43,11.90
2008,06,19,09,44,11.80
2008,06,19,09,45,11.80
2008,06,19,09,46,11.70
2008,06,19,09,47,11.70
2008,06,19,09,48,11.60
2008,06,19,09,49,11.60
2008,06,19,09,50,11.70
2008,06,19,09,51,11.70
2008,06,19,09,52,11.70
2008,06,19,09,53,11.70
2008,06,19,09,54,11.70
2008,06,19,09,55,11.80
2008,06,19,09,56,11.80
2008,06,19,09,57,11.90
2008,06,19,09,58,11.90
2008,06,19,09,59,11.90
2008,06,19,10,00,11.90
2008,06,19,10,01,12.00
2008,06,19,10,02,12.00
2008,06,19,10,03,12.00
2008,06,19,10,04,12.00
2008,06,19,10,05,12.00
2008,06,19,10,06,12.00
2008,06,19,10,07,12.00
2008,06,19,10,08,12.10
2008,06,19,10,09,12.10
2008,06,19,10,10,12.10
2008,06,19,10,11,12.10
2008,06,19,10,12,12.20
2008,06,19,10,13,12.20
2008,06,19,10,14,12.20
2008,06,19,10,15,12.20
2008,06,19,10,16,12.20
2008,06,19,10,17,12.20
2008,06,19,10,18,12.30
2008,06,19,10,19,12.30
2008,06,19,10,20,12.40
2008,06,19,10,21,12.40
2008,06,19,10,22,12.50
2008,06,19,10,23,12.50
2008,06,19,10,24,12.40
2008,06,19,10,25,12.40
2008,06,19,10,26,12.30
2008,06,19,10,27,12.30
2008,06,19,10,28,12.30
2008,06,19,10,29,12.30
2008,06,19,10,30,12.30
2008,06,19,10,31,12.30
2008,06,19,10,32,12.30
2008,06,19,10,33,12.30
2008,06,19,10,34,12.30
2008,06,19,10,35,12.40
2008,06,19,10,36,12.40
2008,06,19,10,37,12.40
2008,06,19,10,38,12.50
2008,06,19,10,39,12.50
2008,06,19,10,40,12.50
2008,06,19,10,41,12.60
2008,06,19,10,42,12.60
2008,06,19,10,43,12.60
2008,06,19,10,44,12.50
2008,06,19,10,45,12.50
2008,06,19,10,46,12.50
2008,06,19,10,47,12.60
2008,06,19,10,48,12.70
2008,06,19,10,49,12.70
2008,06,19,10,50,12.70
2008,06,19,10,51,12.70
2008,06,19,10,52,12.70
2008,06,19,10,53,12.60
2008,06,19,10,54,12.60
2008,06,19,10,55,12.60
2008,06,19,10,56,12.60
2008,06,19,10,57,12.70
2008,06,19,10,58,12.70
2008,06,19,10,59,12.70
2008,06,19,11,00,12.80
2008,06,19,11,01,12.80
2008,06,19,11,02,12.90
2008,06,19,11,03,12.90
2008,06,19,11,04,12.90
2008,06,19,11,05,12.80
2008,06,19,11,06,12.80
2008,06,19,11,07,12.80
2008,06,19,11,08,12.90
2008,06,19,11,09,12.90
2008,06,19,11,10,12.90
2008,06,19,11,11,12.90
2008,06,19,11,12,13.00
2008,06,19,11,13,13.10
2008,06,19,11,14,13.10
2008,06,19,11,15,13.10
2008,06,19,11,16,13.10
2008,06,19,11,17,13.10
2008,06,19,11,18,13.10
2008,06,19,11,19,13.00
2008,06,19,11,20,13.00
2008,06,19,11,21,13.00
2008,06,19,11,22,12.90
2008,06,19,11,23,12.90
2008,06,19,11,24,12.90
2008,06,19,11,25,12.90
2008,06,19,11,26,12.90
2008,06,19,11,27,12.90
2008,06,19,11,28,12.90
2008,06,19,11,29,12.90
2008,06,19,11,30,12.90
2008,06,19,11,31,12.90
2008,06,19,11,32,12.90
2008,06,19,11,33,13.00
2008,06,19,11,34,13.10
2008,06,19,11,35,13.10
2008,06,19,11,36,13.10
2008,06,19,11,37,13.10
2008,06,19,11,38,13.10
2008,06,19,11,39,13.10
2008,06,19,11,40,13.10
2008,06,19,11,41,13.20
2008,06,19,11,42,13.20
2008,06,19,11,43,13.30
2008,06,19,11,44,13.40
2008,06,19,11,45,13.50
2008,06,19,11,46,13.50
2008,06,19,11,47,13.60
2008,06,19,11,48,13.70
2008,06,19,11,49,13.80
2008,06,19,11,50,13.80
2008,06,19,11,51,13.80
2008,06,19,11,52,13.80
2008,06,19,11,53,13.70
2008,06,19,11,54,13.80
2008,06,19,11,55,13.80
2008,06,19,11,56,13.80
2008,06,19,11,57,13.80
2008,06,19,11,58,13.70
2008,06,19,11,59,13.70
2008,06,19,12,00,13.70
2008,06,19,12,01,13.70
2008,06,19,12,02,13.80
2008,06,19,12,03,13.80
2008,06,19,12,04,13.90
2008,06,19,12,05,13.80
2008,06,19,12,06,13.70
2008,06,19,12,07,13.60
2008,06,19,12,08,13.60
2008,06,19,12,09,13.60
2008,06,19,12,10,13.60
2008,06,19,12,11,13.50
2008,06,19,12,12,13.40
2008,06,19,12,13,13.50
2008,06,19,12,14,13.50
2008,06,19,12,15,13.60
2008,06,19,12,16,13.70
2008,06,19,12,17,13.70
2008,06,19,12,18,13.80
2008,06,19,12,19,13.80
2008,06,19,12,20,13.80
2008,06,19,12,21,13.70
2008,06,19,12,22,13.70
2008,06,19,12,23,13.80
2008,06,19,12,24,13.80
2008,06,19,12,25,13.80
2008,06,19,12,26,13.70
2008,06,19,12,27,13.70
2008,06,19,12,28,13.70
2008,06,19,12,29,13.70
2008,06,19,12,30,13.70
2008,06,19,12,31,13.80
2008,06,19,12,32,13.80
2008,06,19,12,33,13.80
2008,06,19,12,34,13.80
2008,06,19,12,35,13.80
2008,06,19,12,36,13.80
2008,06,19,12,37,13.80
2008,06,19,12,38,13.80
2008,06,19,12,39,13.80
2008,06,19,12,40,13.80
2008,06,19,12,41,13.80
2008,06,19,12,42,13.80
2008,06,19,12,43,13.90
2008,06,19,12,44,13.90
2008,06,19,12,45,14.00
2008,06,19,12,46,14.10
2008,06,19,12,47,14.10
2008,06,19,12,48,14.10
2008,06,19,12,49,14.10
2008,06,19,12,50,14.00
2008,06,19,12,51,14.00
2008,06,19,12,52,13.90
2008,06,19,12,53,14.00
2008,06,19,12,54,14.00
2008,06,19,12,55,14.10
2008,06,19,12,56,14.10
2008,06,19,12,57,14.10
2008,06,19,12,58,14.10
2008,06,19,12,59,14.20
2008,06,19,13,00,14.30
2008,06,19,13,01,14.30
2008,06,19,13,02,14.30
2008,06,19,13,03,14.40
2008,06,19,13,04,14.40
2008,06,19,13,05,14.30
2008,06,19,13,06,14.30
2008,06,19,13,07,14.20
2008,06,19,13,08,14.10
2008,06,19,13,09,14.10
2008,06,19,13,10,14.20
2008,06,19,13,11,14.30
2008,06,19,13,12,14.40
2008,06,19,13,13,14.60
2008,06,19,13,14,14.60
2008,06,19,13,15,14.60
2008,06,19,13,16,14.60
2008,06,19,13,17,14.60
2008,06,19,13,18,14.60
2008,06,19,13,19,14.60
2008,06,19,13,20,14.50
2008,06,19,13,21,14.50
2008,06,19,13,22,14.60
2008,06,19,13,23,14.60
2008,06,19,13,24,14.60
2008,06,19,13,25,14.60
2008,06,19,13,26,14.60
2008,06,19,13,27,14.60
2008,06,19,13,28,14.60
2008,06,19,13,29,14.50
2008,06,19,13,30,14.50
2008,06,19,13,31,14.60
2008,06,19,13,32,14.70
2008,06,19,13,33,14.50
2008,06,19,13,34,14.30
2008,06,19,13,35,14.30
2008,06,19,13,36,14.30
2008,06,19,13,37,14.30
2008,06,19,13,38,14.30
2008,06,19,13,39,14.30
2008,06,19,13,40,14.30
2008,06,19,13,41,14.50
2008,06,19,13,42,14.50
2008,06,19,13,43,14.50
2008,06,19,13,44,14.60
2008,06,19,13,45,14.70
2008,06,19,13,46,14.70
2008,06,19,13,47,14.80
2008,06,19,13,48,14.80
2008,06,19,13,49,14.80
2008,06,19,13,50,14.90
2008,06,19,13,51,14.90
2008,06,19,13,52,14.90
2008,06,19,13,53,14.80
2008,06,19,13,54,14.80
2008,06,19,13,55,14.80
2008,06,19,13,56,14.80
2008,06,19,13,57,14.80
2008,06,19,13,58,14.70
2008,06,19,13,59,14.70
2008,06,19,14,00,14.70
2008,06,19,14,01,14.70
2008,06,19,14,02,14.70
2008,06,19,14,03,14.70
2008,06,19,14,04,14.80
2008,06,19,14,05,14.90
2008,06,19,14,06,15.00
2008,06,19,14,07,15.00
2008,06,19,14,08,15.10
2008,06,19,14,09,15.20
2008,06,19,14,10,15.30
2008,06,19,14,11,15.20
2008,06,19,14,12,15.20
2008,06,19,14,13,15.00
2008,06,19,14,14,15.00
2008,06,19,14,15,15.00
2008,06,19,14,16,15.00
2008,06,19,14,17,15.00
2008,06,19,14,18,15.00
2008,06,19,14,19,15.00
2008,06,19,14,20,15.00
2008,06,19,14,21,15.00
2008,06,19,14,22,15.10
2008,06,19,14,23,15.10
2008,06,19,14,24,15.20
2008,06,19,14,25,15.20
2008,06,19,14,26,15.40
2008,06,19,14,27,15.40
2008,06,19,14,28,15.50
2008,06,19,14,29,15.50
2008,06,19,14,30,15.70
2008,06,19,14,31,15.70
2008,06,19,14,32,15.70
2008,06,19,14,33,15.70
2008,06,19,14,34,15.70
2008,06,19,14,35,15.80
2008,06,19,14,36,15.90
2008,06,19,14,37,15.90
2008,06,19,14,38,16.00
2008,06,19,14,39,16.00
2008,06,19,14,40,16.00
2008,06,19,14,41,16.20
2008,06,19,14,42,16.40
2008,06,19,14,43,16.50
2008,06,19,14,44,16.60
2008,06,19,14,45,16.80
2008,06,19,14,46,16.90
2008,06,19,14,47,17.00
2008,06,19,14,48,17.10
2008,06,19,14,49,17.20
2008,06,19,14,50,17.20
2008,06,19,14,51,17.10
2008,06,19,14,52,17.00
2008,06,19,14,53,16.90
2008,06,19,14,54,16.70
2008,06,19,14,55,16.70
2008,06,19,14,56,16.80
2008,06,19,14,57,16.90
2008,06,19,14,58,17.00
2008,06,19,14,59,17.10
2008,06,19,15,00,17.00
2008,06,19,15,01,16.90
2008,06,19,15,02,16.90
2008,06,19,15,03,16.90
2008,06,19,15,04,17.00
2008,06,19,15,05,17.00
2008,06,19,15,06,17.00
2008,06,19,15,07,17.00
2008,06,19,15,08,17.00
2008,06,19,15,09,17.00
2008,06,19,15,10,17.10
2008,06,19,15,11,17.20
2008,06,19,15,12,17.30
2008,06,19,15,13,17.40
2008,06,19,15,14,17.50
2008,06,19,15,15,17.50
2008,06,19,15,16,17.40
2008,06,19,15,17,17.50
2008,06,19,15,18,17.60
2008,06,19,15,19,17.60
2008,06,19,15,20,17.60
2008,06,19,15,21,17.50
2008,06,19,15,22,17.40
2008,06,19,15,23,17.30
2008,06,19,15,24,17.20
2008,06,19,15,25,17.30
2008,06,19,15,26,17.40
2008,06,19,15,27,17.30
2008,06,19,15,28,17.30
2008,06,19,15,29,17.20
2008,06,19,15,30,17.10
2008,06,19,15,31,17.10
2008,06,19,15,32,17.30
2008,06,19,15,33,17.30
2008,06,19,15,34,17.40
2008,06,19,15,35,17.40
2008,06,19,15,36,17.40
2008,06,19,15,37,17.30
2008,06,19,15,38,17.20
2008,06,19,15,39,17.20
2008,06,19,15,40,17.20
2008,06,19,15,41,17.20
2008,06,19,15,42,17.10
2008,06,19,15,43,17.00
2008,06,19,15,44,16.90
2008,06,19,15,45,16.80
2008,06,19,15,46,16.70
2008,06,19,15,47,16.70
2008,06,19,15,48,16.70
2008,06,19,15,49,16.70
2008,06,19,15,50,16.70
2008,06,19,15,51,16.80
2008,06,19,15,52,16.80
2008,06,19,15,53,16.60
2008,06,19,15,54,16.60
2008,06,19,15,55,16.60
2008,06,19,15,56,16.60
2008,06,19,15,57,16.60
2008,06,19,15,58,16.70
2008,06,19,15,59,16.70
2008,06,19,16,00,16.80
2008,06,19,16,01,16.80
2008,06,19,16,02,16.70
2008,06,19,16,03,16.80
2008,06,19,16,04,16.80
2008,06,19,16,05,16.90
2008,06,19,16,06,17.00
2008,06,19,16,07,17.00
2008,06,19,16,08,17.10
2008,06,19,16,09,17.10
2008,06,19,16,10,17.20
2008,06,19,16,11,17.20
2008,06,19,16,12,17.30
2008,06,19,16,13,17.30
2008,06,19,16,14,17.40
2008,06,19,16,15,17.50
2008,06,19,16,16,17.50
2008,06,19,16,17,17.50
2008,06,19,16,18,17.40
2008,06,19,16,19,17.30
2008,06,19,16,20,17.30
2008,06,19,16,21,17.30
2008,06,19,16,22,17.30
2008,06,19,16,23,17.30
2008,06,19,16,24,17.30
2008,06,19,16,25,17.20
2008,06,19,16,26,17.20
2008,06,19,16,27,17.20
2008,06,19,16,28,17.10
2008,06,19,16,29,17.00
2008,06,19,16,30,16.90
2008,06,19,16,31,16.90
2008,06,19,16,32,16.90
2008,06,19,16,33,17.00
2008,06,19,16,34,17.00
2008,06,19,16,35,17.10
2008,06,19,16,36,17.00
2008,06,19,16,37,17.10
2008,06,19,16,38,17.10
2008,06,19,16,39,17.20
2008,06,19,16,40,17.40
2008,06,19,16,41,17.40
2008,06,19,16,42,17.40
2008,06,19,16,43,17.40
2008,06,19,16,44,17.50
2008,06,19,16,45,17.50
2008,06,19,16,46,17.60
2008,06,19,16,47,17.70
2008,06,19,16,48,17.70
2008,06,19,16,49,17.70
2008,06,19,16,50,17.70
2008,06,19,16,51,17.70
2008,06,19,16,52,17.70
2008,06,19,16,53,17.70
2008,06,19,16,54,17.80
2008,06,19,16,55,17.90
2008,06,19,16,56,18.00
2008,06,19,16,57,18.00
2008,06,19,16,58,18.10
2008,06,19,16,59,18.10
2008,06,19,17,00,18.00
2008,06,19,17,01,18.00
2008,06,19,17,02,17.90
2008,06,19,17,03,17.80
2008,06,19,17,04,17.80
2008,06,19,17,05,17.80
2008,06,19,17,06,17.70
2008,06,19,17,07,17.70
2008,06,19,17,08,17.60
2008,06,19,17,09,17.50
2008,06,19,17,10,17.40
2008,06,19,17,11,17.40
2008,06,19,17,12,17.40
2008,06,19,17,13,17.40
2008,06,19,17,14,17.40
2008,06,19,17,15,17.50
2008,06,19,17,16,17.50
2008,06,19,17,17,17.60
2008,06,19,17,18,17.60
2008,06,19,17,19,17.70
2008,06,19,17,20,17.70
2008,06,19,17,21,17.80
2008,06,19,17,22,17.90
2008,06,19,17,23,17.90
2008,06,19,17,24,17.80
2008,06,19,17,25,17.70
2008,06,19,17,26,17.50
2008,06,19,17,27,17.40
2008,06,19,17,28,17.40
2008,06,19,17,29,17.40
2008,06,19,17,30,17.40
2008,06,19,17,31,17.40
2008,06,19,17,32,17.40
2008,06,19,17,33,17.40
2008,06,19,17,34,17.40